Weather History for 10637 - June, 2013

Change the Weather History Date:

Wednesday, June 12, 2013

  Actual Average Record
Temperature  
Mean Temperature 62 °F -  
Max Temperature 73 °F 73 °F - ()
Min Temperature 51 °F 54 °F - ()
Degree Days  
Heating Degree Days 3    
Growing Degree Days 12 (Base 50)    
Moisture  
Dew Point 55 °F    
Average Humidity 73    
Maximum Humidity 100    
Minimum Humidity 49    
Precipitation  
Precipitation 0.00 in - - ()
Sea Level Pressure  
Sea Level Pressure 30.10 in    
Wind  
Wind Speed 4 mph ()    
Max Wind Speed 11 mph    
Max Gust Speed 18 mph    
Visibility 8.7 miles    
Events Rain    
T = Trace of Precipitation, MM = Missing Value Source: Averaged Metar Reports

Daily Weather History Graph

Daily Weather History Graph

Search for Another Location

Airport or City:

Trip Planner

Search our weather history database for the weather conditions in past years. The results will help you decide how hot, cold, wet, or windy it might be!

Date:

Astronomy

Jun. 12, 2013 Rise Set
Actual Time 5:16 AM CEST 9:35 PM CEST
Civil Twilight 4:31 AM CEST 10:19 PM CEST
Nautical Twilight 3:27 AM CEST 11:24 PM CEST
Astronomical Twilight 1:57 AM CEST 12:53 AM CEST
Moon 8:56 AM CEST (6/12) 11:42 PM CEST (6/12)
Length of Visible Light 17h 47m
Length of Day
16h 19m
Waxing Crescent, 12% of the Moon is Illuminated
Jun 12
Waxing Crescent
Jun 16
First Quarter
Jun 23
Full
Jun 30
Last Quarter
Jul 8
New

Hourly Weather History & Observations

Time (CEST) Temp. Dew Point Humidity Pressure Visibility Wind Dir Wind Speed Gust Speed Precip Events Conditions
12:00 AM 59 °F 53 °F 73% 30.09 in 16 mi ENE 2.2 mph - -   Partly Cloudy
12:20 AM 57.2 °F 51.8 °F 82% 30.09 in - NNE 1.2 mph - N/A   Clear
12:50 AM 55.4 °F 51.8 °F 88% 30.09 in - ENE 1.2 mph - N/A   Clear
1:00 AM 56 °F 52 °F 81% 30.10 in 16 mi ENE 2.2 mph - -   Partly Cloudy
1:20 AM 55.4 °F 51.8 °F 88% 30.09 in - Variable 1.2 mph - N/A   Clear
1:50 AM 53.6 °F 51.8 °F 94% 30.09 in - NE 2.3 mph - N/A   Clear
2:00 AM 54 °F 51 °F 86% 30.11 in 16 mi NE 2.2 mph - -   Scattered Clouds
2:20 AM 53.6 °F 51.8 °F 94% 30.09 in - NE 1.2 mph - N/A   Clear
2:50 AM 53.6 °F 51.8 °F 94% 30.09 in - SE 2.3 mph - N/A   Clear
3:00 AM 53 °F 50 °F 87% 30.10 in 16 mi SE 2.2 mph - -   Scattered Clouds
3:20 AM 51.8 °F 51.8 °F 100% 30.09 in - ENE 1.2 mph - N/A   Clear
3:50 AM 51.8 °F 50.0 °F 94% 30.09 in - NE 3.5 mph - N/A   Clear
4:00 AM 52 °F 50 °F 89% 30.11 in 12 mi NE 2.2 mph - -   Scattered Clouds
4:20 AM 51.8 °F 50.0 °F 94% 30.09 in - ENE 1.2 mph - N/A   Clear
4:50 AM 51.8 °F 51.8 °F 100% 30.09 in - ENE 2.3 mph - N/A   Clear
5:20 AM 51.8 °F 51.8 °F 100% 30.09 in - Variable 1.2 mph - N/A   Clear
5:50 AM 53.6 °F 51.8 °F 94% 30.09 in - NE 2.3 mph - N/A   Clear
6:00 AM 53 °F 51 °F 88% 30.11 in 11 mi NE 2.2 mph - -   Partly Cloudy
6:20 AM 55.4 °F 51.8 °F 88% 30.09 in - Variable 2.3 mph - N/A   Clear
6:50 AM 55.4 °F 53.6 °F 94% 30.09 in - NE 2.3 mph - N/A   Clear
7:00 AM 56 °F 52 °F 83% 30.11 in 11 mi NE 2.2 mph - -   Mostly Cloudy
7:20 AM 59.0 °F 53.6 °F 82% 30.09 in - Variable 2.3 mph - N/A   Clear
7:50 AM 59.0 °F 53.6 °F 82% 30.12 in 6.2 mi South 3.5 mph - N/A   Mostly Cloudy
8:00 AM 59 °F 53 °F 73% 30.13 in 11 mi South 2.2 mph - -   Mostly Cloudy
8:20 AM 59.0 °F 55.4 °F 88% 30.12 in 6.2 mi South 4.6 mph - N/A   Mostly Cloudy
8:50 AM 60.8 °F 55.4 °F 82% 30.12 in 6.2 mi Variable 3.5 mph - N/A   Mostly Cloudy
9:00 AM 60 °F 55 °F 78% 30.14 in 11 mi SSW 4.5 mph - - Rain Light Rain Showers
9:20 AM 60.8 °F 55.4 °F 82% 30.12 in 6.2 mi Variable 2.3 mph - N/A   Mostly Cloudy
9:50 AM 62.6 °F 55.4 °F 77% 30.12 in 6.2 mi SSW 4.6 mph - N/A   Mostly Cloudy
10:00 AM 62 °F 56 °F 75% 30.13 in 11 mi SSW 4.5 mph - -   Partly Cloudy
10:20 AM 66.2 °F 59.0 °F 78% 30.12 in 6.2 mi SSW 4.6 mph - N/A   Mostly Cloudy
10:50 AM 64.4 °F 57.2 °F 77% 30.12 in 6.2 mi SSW 6.9 mph - N/A   Mostly Cloudy
11:20 AM 68.0 °F 57.2 °F 68% 30.12 in 6.2 mi SSE 5.8 mph 18.4 mph N/A   Mostly Cloudy
11:50 AM 68.0 °F 55.4 °F 64% 30.12 in 6.2 mi South 6.9 mph - N/A   Mostly Cloudy
12:00 PM 69 °F 57 °F 56% 30.12 in 11 mi South 6.7 mph - -   Scattered Clouds
12:20 PM 69.8 °F 55.4 °F 60% 30.12 in 6.2 mi South 6.9 mph - N/A   Mostly Cloudy
12:50 PM 71.6 °F 59.0 °F 64% 30.12 in 6.2 mi SSW 8.1 mph - N/A   Mostly Cloudy
1:00 PM 71 °F 59 °F 56% 30.12 in 11 mi SSW 6.7 mph - -   Mostly Cloudy
1:20 PM 71.6 °F 57.2 °F 60% 30.09 in 6.2 mi SW 9.2 mph - N/A   Mostly Cloudy
1:50 PM 71.6 °F 57.2 °F 60% 30.09 in 6.2 mi SSW 10.4 mph - N/A   Mostly Cloudy
2:00 PM 71 °F 56 °F 50% 30.11 in 19 mi SSW 11.2 mph - -   Partly Cloudy
2:20 PM 69.8 °F 55.4 °F 60% 30.09 in 6.2 mi SW 10.4 mph - N/A   Mostly Cloudy
2:50 PM 71.6 °F 57.2 °F 60% 30.09 in 6.2 mi SSW 10.4 mph - N/A   Mostly Cloudy
3:00 PM 72 °F 57 °F 49% 30.10 in 14 mi SSW 11.2 mph - -   Mostly Cloudy
3:20 PM 71.6 °F 57.2 °F 60% 30.09 in 6.2 mi SSW 10.4 mph - N/A   Mostly Cloudy
3:50 PM 71.6 °F 57.2 °F 60% 30.09 in 6.2 mi South 9.2 mph - N/A   Mostly Cloudy
4:00 PM 72 °F 57 °F 50% 30.10 in 17 mi South 8.9 mph - -   Mostly Cloudy
4:20 PM 71.6 °F 57.2 °F 60% 30.09 in 6.2 mi SSW 10.4 mph - N/A   Mostly Cloudy
4:50 PM 73.4 °F 57.2 °F 57% 30.09 in 6.2 mi SSW 6.9 mph - N/A   Mostly Cloudy
5:20 PM 73.4 °F 57.2 °F 57% 30.09 in 6.2 mi SSW 10.4 mph - N/A   Mostly Cloudy
5:50 PM 71.6 °F 57.2 °F 60% 30.09 in 6.2 mi SSW 10.4 mph - N/A   Mostly Cloudy
6:00 PM 72 °F 58 °F 51% 30.09 in 25 mi SSW 8.9 mph - -   Mostly Cloudy
6:20 PM 71.6 °F 57.2 °F 60% 30.09 in 6.2 mi SSW 9.2 mph - N/A   Mostly Cloudy
6:50 PM 71.6 °F 59.0 °F 64% 30.09 in 6.2 mi SSW 9.2 mph - N/A   Mostly Cloudy
7:00 PM 72 °F 58 °F 51% 30.08 in 25 mi SSW 8.9 mph - -   Partly Cloudy
7:20 PM 71.6 °F 59.0 °F 64% 30.06 in 6.2 mi SW 8.1 mph - N/A   Mostly Cloudy
7:50 PM 71.6 °F 59.0 °F 64% 30.06 in 6.2 mi SSW 9.2 mph - N/A   Mostly Cloudy
8:00 PM 72 °F 58 °F 53% 30.08 in 31 mi SSW 8.9 mph - -   Partly Cloudy
8:20 PM 71.6 °F 57.2 °F 60% 30.06 in 6.2 mi SW 8.1 mph - N/A   Partly Cloudy
8:50 PM 71.6 °F 59.0 °F 64% 30.06 in 6.2 mi SW 6.9 mph - N/A   Mostly Cloudy
9:00 PM 71 °F 58 °F 56% 30.08 in 37 mi SW 6.7 mph - -   Scattered Clouds
9:20 PM 69.8 °F 59.0 °F 68% 30.06 in 6.2 mi SSW 6.9 mph - N/A   Scattered Clouds
9:50 PM 69.8 °F 59.0 °F 68% 30.06 in - SSW 6.9 mph - N/A   Clear
10:00 PM 69 °F 58 °F 60% 30.08 in 37 mi SSW 6.7 mph - -   Scattered Clouds
10:20 PM 68.0 °F 59.0 °F 73% 30.09 in - South 5.8 mph - N/A   Clear
10:50 PM 66.2 °F 59.0 °F 78% 30.09 in - South 3.5 mph - N/A   Clear
11:20 PM 66.2 °F 59.0 °F 78% 30.09 in - SSE 3.5 mph - N/A   Clear
11:50 PM 64.4 °F 59.0 °F 83% 30.09 in 6.2 mi SE 2.3 mph - N/A   Mostly Cloudy